{"data":{"norad_id":63998,"epoch":"2026-09-19T12:01:42.681216Z","epoch_age_seconds":229907,"freshness":"STALE","line1":"1 63998U 25101E   26262.50118844  .00006995  00000+0  26345-3 0  9994","line2":"2 63998  43.0018 343.6396 0001571 274.4098  85.6574 15.27585782 76698","mean_motion":15.27585782,"eccentricity":0.0001571,"inclination_deg":43.0018,"raan_deg":343.6396,"arg_perigee_deg":274.4098,"mean_anomaly_deg":85.6574,"bstar":0.00026345,"rev_number":7669,"period_min":94.266391908589,"perigee_km":481.95389309044,"apogee_km":484.10967232196,"semimajor_km":6861.1687827062,"source":"CELESTRAK","updated_at":"2026-09-21T09:00:35.180525Z"}}